Location: Palomar Mountain Lodge
(33.3110°N, 116.8495°W)
Time: 17:31:42
(UTC-07:00)

ERS-1 Rocket - Pass Details

Date: 14 June 2018
Orbit: 754 x 757 km, 98.5° (Epoch: 16 October)

Event Time Altitude Azimuth Distance (km) Brightness Sun altitude
Exits shadow 22:26:46 43° 212° (SSW) 1,058 3.5 -24.2°
Maximum altitude 22:28:03 54° 259° (W) 908 3.4 -24.3°
Drops below altitude 10° 22:32:58 10° 337° (NNW) 2,284 6.5 -24.9°
Sets 22:35:19 0° 342° (NNW) 3,213 7.4 -25.2°
